SCP
0 0 0 0 0 0 0 0 0 0 0 0 0 0 0 0 0 0 0 0 0 0
0 0 0 0 0 0 0 0 0 0 0 0 0 0 0 0 0 0 0 0 0 0
0 0 0 0 0 0 0 0 0 0 0 0 0 0 0 0 0 0 0 0 0 0
0 0 0 0 0 0 0 0 0 0 0 0 0 0 0 0 0 0 0 0 0 0
0 0 0 0 0 0 0 0 0 0 0 0 0 0 0 0 0 0 0 0 0 0
0 0 0 0 0 0 0 0 0 0 0 0 0 0 0 0 0 0 0 0 0 0
0 0 0 0 0 0 0 0 0 0 0 0 0 0 0 0 0 0 0 0 0 0
0 0 0 0 0 0 0 0 0 0 0 0 0 0 0 0 0 0 0 0 0 0
0 0 0 0 0 0 0 0 0 0 0 0 0 0 0 0 0 0 0 0 0 0
0 0 0 0 0 0 0 0 0 0 0 0 0 0 0 0 0 0 0 0 0 0
0 0 0 0 0 0 0 0 0 0 0 0 0 0 0 0 0 0 0 0 0 0
0 0 0 0 0 0 0 0 0 0 0 0 0 0 0 0 0 0 0 0 0 0
0 0 0 0 0 0 0 0 0 0 0 0 0 0 0 0 0 0 0 0 0 0
0 0 0 0 0 0 0 0 0 0 0 0 0 0 0 0 0 0 0 0 0 0
Wind_Speed_500mb
109 102 124 145 135 124 118 117 109 103 94 86 81 73 64 53 50 49 47 43 39 33
110 97 106 141 128 120 125 122 110 101 97 91 83 71 64 59 56 50 48 44 38 36
106 98 101 131 132 123 125 122 112 104 96 88 79 71 67 66 60 61 57 51 43 33
97 107 98 119 117 119 120 128 114 105 97 88 80 75 70 65 67 70 66 61 48 35
99 105 101 114 123 113 118 121 116 106 98 90 83 78 74 79 78 71 62 50 44 46
100 108 106 116 114 107 114 124 116 106 97 88 84 81 75 74 60 54 51 50 47 44
100 98 89 76 92 105 117 123 114 100 94 87 81 78 72 59 51 52 47 44 45 43
94 94 84 72 94 97 108 114 108 97 85 76 75 69 58 54 48 49 47 50 44 36
88 85 81 74 89 96 101 103 95 86 75 77 70 57 53 51 53 46 49 42 38 35
76 87 82 90 97 101 106 103 99 85 82 72 58 62 55 44 44 44 38 36 35 32
81 84 84 86 89 99 99 84 80 80 66 62 61 51 46 49 40 39 37 35 30 28
77 79 76 72 79 88 91 86 75 67 64 58 51 51 47 41 40 39 34 29 29 27
60 70 76 82 91 89 79 76 68 65 52 53 52 45 40 38 35 31 28 28 26 26
64 70 77 85 82 78 75 70 62 58 56 47 39 36 33 30 26 24 25 25 24 23
Wind_Direction_500mb
237 231 206 212 218 218 210 204 205 203 205 208 209 210 208 200 199 204 200 194 194 196
237 226 209 207 216 214 208 205 203 204 201 203 203 202 199 194 189 192 190 187 187 189
229 219 211 204 205 212 209 204 198 199 196 196 195 196 198 190 188 192 192 195 202 191
215 210 204 206 211 206 205 201 197 196 195 194 195 197 201 198 191 199 207 200 193 207
202 200 201 204 212 204 203 195 196 194 194 193 194 194 196 195 197 207 202 188 203 239
195 197 194 205 203 202 200 191 189 189 190 190 194 194 197 200 203 203 198 216 223 208
191 188 189 204 207 200 194 188 185 184 188 188 189 194 197 198 202 194 196 202 209 209
186 193 191 205 202 193 186 185 185 183 185 187 192 195 192 185 188 194 205 202 206 211
189 186 188 206 198 190 187 180 179 180 183 185 183 182 182 184 186 207 194 204 208 213
183 182 187 187 185 185 180 177 177 177 178 175 175 172 182 197 190 187 201 207 212 220
177 177 178 178 179 178 174 171 169 167 167 167 171 184 189 179 184 200 206 211 217 227
171 168 169 172 169 167 167 166 164 161 163 170 175 174 173 187 199 205 208 214 224 236
162 162 163 166 166 161 160 159 158 162 165 163 162 175 191 197 204 210 215 223 232 244
158 159 157 157 156 153 156 156 159 155 154 163 180 189 198 202 212 220 226 231 236 247
Wind_Speed_850mb
109 102 124 145 135 124 118 117 109 103 94 86 81 73 64 53 50 49 47 43 39 33
110 97 106 141 128 120 125 122 110 101 97 91 83 71 64 59 56 50 48 44 38 36
106 98 101 131 132 123 125 122 112 104 96 88 79 71 67 66 60 61 57 51 43 33
97 107 98 119 117 119 120 128 114 105 97 88 80 75 70 65 67 70 66 61 48 35
99 105 101 114 123 113 118 121 116 106 98 90 83 78 74 79 78 71 62 50 44 46
100 108 106 116 114 107 114 124 116 106 97 88 84 81 75 74 60 54 51 50 47 44
100 98 89 76 92 105 117 123 114 100 94 87 81 78 72 59 51 52 47 44 45 43
94 94 84 72 94 97 108 114 108 97 85 76 75 69 58 54 48 49 47 50 44 36
88 85 81 74 89 96 101 103 95 86 75 77 70 57 53 51 53 46 49 42 38 35
76 87 82 90 97 101 106 103 99 85 82 72 58 62 55 44 44 44 38 36 35 32
81 84 84 86 89 99 99 84 80 80 66 62 61 51 46 49 40 39 37 35 30 28
77 79 76 72 79 88 91 86 75 67 64 58 51 51 47 41 40 39 34 29 29 27
60 70 76 82 91 89 79 76 68 65 52 53 52 45 40 38 35 31 28 28 26 26
64 70 77 85 82 78 75 70 62 58 56 47 39 36 33 30 26 24 25 25 24 23
Wind_Direction_850mb
237 231 206 212 218 218 210 204 205 203 205 208 209 210 208 200 199 204 200 194 194 196
237 226 209 207 216 214 208 205 203 204 201 203 203 202 199 194 189 192 190 187 187 189
229 219 211 204 205 212 209 204 198 199 196 196 195 196 198 190 188 192 192 195 202 191
215 210 204 206 211 206 205 201 197 196 195 194 195 197 201 198 191 199 207 200 193 207
202 200 201 204 212 204 203 195 196 194 194 193 194 194 196 195 197 207 202 188 203 239
195 197 194 205 203 202 200 191 189 189 190 190 194 194 197 200 203 203 198 216 223 208
191 188 189 204 207 200 194 188 185 184 188 188 189 194 197 198 202 194 196 202 209 209
186 193 191 205 202 193 186 185 185 183 185 187 192 195 192 185 188 194 205 202 206 211
189 186 188 206 198 190 187 180 179 180 183 185 183 182 182 184 186 207 194 204 208 213
183 182 187 187 185 185 180 177 177 177 178 175 175 172 182 197 190 187 201 207 212 220
177 177 178 178 179 178 174 171 169 167 167 167 171 184 189 179 184 200 206 211 217 227
171 168 169 172 169 167 167 166 164 161 163 170 175 174 173 187 199 205 208 214 224 236
162 162 163 166 166 161 160 159 158 162 165 163 162 175 191 197 204 210 215 223 232 244
158 159 157 157 156 153 156 156 159 155 154 163 180 189 198 202 212 220 226 231 236 247